Вернуться в каталог

STARLINK-32392

АктивенСвязьVLEO
NORAD 61214·PAYLOAD·🇺🇸 United States

Запущен Sep 20, 2024 с Vandenberg Space Force Base

Loading…

Ближайшие Пролёты (ближайшие 24 часа)

TLE

СвежийSource: CelesTrak SupGP

Эпоха: Sep 14, 2026, 20:58 UTC

1 61214C 24171Q   26257.87409722 -.00027450  00000+0 -81070-3 0  2575
2 61214  53.1579 159.8361 0001304 101.0172  56.9484 15.34416510    16

Отслеживайте STARLINK-32392 в реальном времени с AllMySat

Download on the App Store